Regional Weather Roundup
Issued by NWS

Home | Current Version | Previous Version | Text Only | Print | Product List | Glossary On
Versions: 1 2 3 4 5 6 7 8 9 10 11 12 13 14 15 16 17 18 19 20 21 22 23 24 25 26 27 28 29 30 31 32 33 34 35 36 37 38 39 40 41 42 43 44 45 46 47 48 49 50
000
ASUS44 KFWD 242315
RWRTX
NORTH TEXAS HOURLY WEATHER ROUNDUP
NATIONAL WEATHER SERVICE FORT WORTH TX
600 PM CDT MON JUL 24 2017

NOTE: "FAIR" INDICATES FEW OR NO CLOUDS BELOW 12,000 FEET WITH NO
SIGNIFICANT WEATHER AND/OR OBSTRUCTIONS TO VISIBILITY.

TXZ118-119-250000-
DALLAS/FORT WORTH METROPLEX

CITY           SKY/WX    TMP DP  RH WIND       PRES   REMARKS
DFW AIRPORT    FAIR      92  74  55 SE10      29.92S HX 101
DALLAS LOVE    FAIR      91  72  53 SE6       29.93S HX  98
FTW MEACHAM    FAIR      93  73  52 E7        29.92S HX 102
DAL-EXECUTIVE  FAIR      91  73  55 SE10      29.93S HX  99
FTW-ALLIANCE   FAIR      90  72  55 SE8       29.93S HX  97
FTW-NAS-JRB    FAIR      94  69  44 E9        29.92F HX  99
FTW-SPINKS     MOSUNNY   93  70  46 SE6       29.95R HX  99
ARLINGTON      FAIR      91  74  57 E8        29.93S HX 100
GRAND PRAIRIE  SUNNY     91  72  52 E9        29.94S HX  98
ADDISON        SUNNY     90  72  55 E10       29.95R HX  96
MESQUITE       MOSUNNY   90  73  58 SE6       29.95S HX  98
LANCASTER      FAIR      89  76  63 SE10G16   29.95R HX 100
$$

TXZ091>094-102>105-117-120-121-131>134-250000-
NORTH CENTRAL TEXAS

CITY           SKY/WX    TMP DP  RH WIND       PRES   REMARKS
SHRMAN/DENISON FAIR      90  73  56 SE7       29.95S HX  98
GAINESVILLE    FAIR      90  69  50 SE6       29.96S HX  94
BOWIE          FAIR      91  73  55 SE5       29.95S HX  99
BRIDGEPORT     FAIR      91  70  48 E5        29.95S HX  96
DECATUR        FAIR      91  71  52 SE7         N/A  HX  97
DENTON         FAIR      91  73  55 MISG      29.93S HX  99
MCKINNEY       FAIR      89  74  60 S9        29.94S HX  98
BONHAM         FAIR      88  70  55 S8        29.95S HX  92
GREENVILLE     FAIR      91  68  46 SE6       29.95S HX  95
ROCKWALL       FAIR      88  74  61 S8        29.95R HX  97
TERRELL        FAIR      89  73  59 S8        29.95S HX  97
WAXAHACHIE     FAIR      91  72  53 S5        29.95S HX  98
CLEBURNE       FAIR      91  70  49 SE12G17   29.96R HX  97
GRANBURY       FAIR      95  66  39 SE7       29.94R HX  98
$$

TXZ083>090-098>101-113>116-127>130-139>142-154-155-250000-
WESTERN NORTH TEXAS

CITY           SKY/WX    TMP DP  RH WIND       PRES   REMARKS
WICHITA FALLS  FAIR      91  69  48 SE10      29.92F HX  96
WF-KICKAPOO    FAIR      93  71  48 E10G16    29.95F HX  99
VERNON         FAIR      94  63  36 SE6       29.93F HX  95
ABILENE        CLOUDY    94  66  39 SE10      29.94S HX  97
ABILENE-DYESS  FAIR      97  64  33 S6        29.93S HX  99
GRAHAM         FAIR      93  66  40 E8        29.90F HX  95
BRECKENRIDGE   FAIR      96  64  35 SE12      29.92F HX  97
CISCO          FAIR      93  66  40 S6G12     29.96F HX  96
EASTLAND       FAIR      93  69  46 SE7       29.95R HX  98
RANGER         FAIR      91  67  44 SW5       29.96R HX  94
MINERAL WELLS  FAIR      93  70  46 SE12      29.92S HX  99
STEPHENVILLE   FAIR      92  66  41 SE3       29.98R HX  95
COMANCHE       FAIR      94  69  44 SE7       29.95S HX  99
BROWNWOOD      RAIN      93  64  38 SE8       29.95R HX  95
COLEMAN        FAIR      91  68  46 S14       29.96S HX  95
$$

TXZ143>147-156>162-174-175-250000-
CENTRAL TEXAS

CITY           SKY/WX    TMP DP  RH WIND       PRES   REMARKS
WACO           FAIR      88  71  57 S17G28    29.95R HX  94
WACO-TSTC      MOSUNNY   86  72  62 S13G20    29.95R HX  92
WACO-MCGREGOR  FAIR      87  70  56 SE20      29.96R HX  92
HILLSBORO      PTSUNNY   91  74  58 SE9       29.95R HX 100
CORSICANA      FAIR      87  73  62 SE9       29.97R HX  94
MEXIA          PTSUNNY   83  75  76 S14G20    29.97R HX  90
HEARNE         LGT RAIN  75  75  99 N5        29.96S
CAMERON        LGT RAIN  76  71  84 E3        29.94F
TEMPLE         LGT RAIN  78  74  87 E9        29.97R
KILLEEN        FAIR      88  67  50 S5        29.96S HX  91
KILLEEN-SKYLRK FAIR      88  70  55 SE8       29.96S HX  93
FORT HOOD      FAIR      89  66  47 S8        29.93S HX  91
HAMILTON       FAIR      93  68  44 SE14      29.97S HX  98
LAMPASAS       FAIR      91  73  56 S8        29.96F HX  99
$$

TXZ095>097-106>112-122>126-135>138-148>153-164>167-250000-
EAST TEXAS

CITY           SKY/WX    TMP DP  RH WIND       PRES   REMARKS
PARIS            N/A     92  73  53 SW6       29.95F HX 100
SULPHUR SPRNGS FAIR      91  68  47 CALM      29.96S HX  94
MOUNT PLEASANT FAIR      86  69  57 S7        29.95F
GILMER         FAIR      78  74  89 CALM      29.96F
MINEOLA        FAIR      90  75  62 S6        29.95S HX 100
TYLER          FAIR      85  76  74 S6        29.96F HX  94
LONGVIEW       FAIR      88  77  69 W9        29.94S HX 100
MARSHALL         N/A     90  74  58 S3        29.96F HX  99
ATHENS         FAIR      84  72  65 S3        29.96R
PALESTINE      FAIR      81  73  76 CALM      29.99R
JACKSONVILLE   FAIR      80  73  79 SW3       30.01S
HENDERSON      FAIR      84  76  76 W3        29.98R HX  92
CENTER         HAZE      85  77  75 SW6       29.99S VSB 3/4 HX  95
NACOGDOCHES    FAIR      84  75  74 SW7       29.95F HX  92
LUFKIN         FAIR      85  78  80 VRB5      29.97F HX  96
$$

SUPPLEMENTAL OBSERVATIONS (NWS FORT WORTH AREA)

CITY           SKY/WX    TMP DP  RH WIND       PRES   REMARKS
DENISON DAM      N/A     90  70  51 SE3         N/A  HX  95
CADDO GRASSLND   N/A     91  68  46 S3          N/A  HX  95
PAT MAYSE LAKE   N/A     90  72  55 S1          N/A  HX  96
LBJ GRASSLAND    N/A     93  70  46 S6          N/A  HX  99
POSSUM KINGDOM   N/A     97  68  38 E8          N/A  HX 101
GRANBURY         N/A     95  66  38 SE9         N/A  HX  98
COMANCHE         N/A     93  70  46 SE8         N/A  HX  99
MCGREGOR         N/A     82  70  65 S12G25      N/A
TEMPLE           N/A     81  70  69 E7          N/A
LAKE LIMESTONE   N/A     81  75  83 NW2         N/A
ATHENS           N/A     88  73  62 S7          N/A  HX  96
$$

SUPPLEMENTAL OBSERVATIONS (NWS NORMAN AREA)

CITY           SKY/WX    TMP DP  RH WIND       PRES   REMARKS
GOODLETT         N/A     92  61  35 S7        29.93F HX  91
ODELL            N/A     92  71  50 SE12      29.94F HX  97
CROWELL          N/A     95  68  41 SE12      29.92F HX  99
KNOX CITY        N/A     94  62  34 E7        29.92F HX  95
SEYMOUR          N/A     97  62  31 E6        29.91F HX  98
MILLERS CREEK    N/A     97  68  38 SE8         N/A  HX 101
$$

SUPPLEMENTAL OBSERVATIONS (NWS SAN ANGELO AREA)

CITY           SKY/WX    TMP DP  RH WIND       PRES   REMARKS
WEINERT          N/A     94  66  40 E5        29.93S HX  97
HASKELL          N/A     93  60  32 SE5       29.93S HX  93
THROCKMORTON     N/A     95  71  45 E6        29.93S HX 102
STAMFORD         N/A     96  65  36 E8        29.93S HX  99
CLYDE            N/A     94  67  41 E8        29.98R HX  97
HAMBY            N/A     97  64  34 SE6G14      N/A  HX  99
IVIE RESERVOIR   N/A     90  70  51 SE21G26     N/A  HX  95
COLORADO BEND    N/A     90  66  45 SE10        N/A  HX  92
$$

SUPPLEMENTAL OBSERVATIONS (NWS SHREVEPORT AREA)

CITY           SKY/WX    TMP DP  RH WIND       PRES   REMARKS
CLARKSVILLE      N/A     93  70  46 S2          N/A  HX  99
TEXARKANA        N/A     91  72  52 CALM        N/A  HX  98
LINDEN           N/A     88  72  58 S2          N/A  HX  94
CADDO LAKE       N/A     90  73  58 SW1         N/A  HX  98
GILMER           N/A     79  75  89 E2          N/A
HENDERSON        N/A     84  75  74 SW6         N/A  HX  92
LUFKIN           N/A     84  77  79 MISG        N/A  HX  94
N SABINE NF      N/A     81  75  83 MISG        N/A
S SABINE NF      N/A     81  73  78 S1          N/A
$$

SUPPLEMENTAL OBSERVATIONS ARE A COLLECTION OF AUTOMATED INSTRUMENTS
THAT ARE MAINTAINED BY A VARIETY OF FEDERAL AND STATE AGENCIES.
CERTAIN ELEMENTS...SUCH AS HUMIDITY VALUES AND SUSTAINED WIND
SPEEDS...MAY BE APPROXIMATED.





USA.gov is the U.S. government's official web portal to all federal, state and local government web resources and services.